Regional Weather Roundup
Issued by NWS

Home | Current Version | Previous Version | Graphics & Text | Print | Product List | Glossary On
Versions: 1 2 3 4 5 6 7 8 9 10 11 12 13 14 15 16 17 18 19 20 21 22 23 24 25 26 27 28 29 30 31 32 33 34 35 36 37 38 39 40 41 42 43 44 45 46 47 48 49 50
144
ASUS43 KMKX 251121
RWRWI

WISCONSIN REGIONAL WEATHER ROUNDUP
NATIONAL WEATHER SERVICE MILWAUKEE/SULLIVAN WI
600 AM CDT SUN JUN 25 2017

NOTE: "FAIR" INDICATES FEW OR NO CLOUDS BELOW 12,000 FEET WITH NO
SIGNIFICANT WEATHER AND/OR OBSTRUCTIONS TO VISIBILITY.

WIZ001-002-006>008-014>016-023>028-251200-
NORTHWEST WISCONSIN

CITY           SKY/WX    TMP DP  RH WIND       PRES   REMARKS
SUPERIOR ARPT  NOT AVBL
ASHLAND        LGT RAIN  53  52  96 CALM      30.00R FOG
HAYWARD        CLOUDY    51  49  92 VRB3      30.03R
SIREN          CLOUDY    50  49  95 W8        30.05S
CUMBERLAND     MOCLDY    50  46  87 W8        30.05R
RICE LAKE      CLOUDY    51  49  92 W6        30.06R
CHETEK         CLOUDY    51  50  95 CALM      30.05R
LADYSMITH      CLOUDY    51  50  94 W7        30.04R
EAU CLAIRE     MOCLDY    50  48  93 W3        30.05R
MENOMONIE      CLOUDY    53  50  89 W5        30.07R
NEW RICHMOND   CLOUDY    53  47  80 W9        30.08R
OSCEOLA        CLOUDY    54  49  83 W7        30.11R
$$

WIZ003>005-009-010-017-018-251200-
NORTH CENTRAL WISCONSIN

CITY           SKY/WX    TMP DP  RH WIND       PRES   REMARKS
MANITOWISH WTR CLOUDY    51  51 100 W5        29.99R
ARBOR VITAE    CLOUDY    53  51  94 NW5       29.98R
WOODRUFF       CLOUDY    53  51  94 NW5       29.98R
RHINELANDER    CLOUDY    51  51 100 W7        29.99R
EAGLE RIVER    CLOUDY    51  51 100 N5        29.97R
LAND O LAKES   PTCLDY    50  50  99 W3        29.99S
PHILLIPS       PTCLDY    46  46 100 CALM      30.01R
TOMAHAWK       NOT AVBL
MEDFORD        CLEAR     47  46  97 W7        30.01S
MERRILL        CLEAR     48  48 100 W7        30.01R
$$

WIZ029-030-035-036-043>047-251200-
CENTRAL WISCONSIN

CITY           SKY/WX    TMP DP  RH WIND       PRES   REMARKS
WAUSAU         CLEAR     49  48  97 W8        29.99R
MOSINEE        PTCLDY    48  48 100 W8        30.01R
MARSHFIELD     PTCLDY    49  46  90 W12       30.02R
STEVENS POINT  CLEAR     49  47  94 W7        30.01S
WAUPACA        CLEAR     52  50  91 W8        30.01R
WAUTOMA        PTCLDY    51  48  89 W8        30.03R
WISC RAPIDS    CLEAR     49  46  90 W8        30.04R
CAMP DOUGLAS   CLEAR     47  46  97 W8        30.04S
$$

WIZ011>013-019>022-031-037>040-048>050-251200-
NORTHEAST WISCONSIN

CITY           SKY/WX    TMP DP  RH WIND       PRES   REMARKS
ANTIGO         CLOUDY    50  49  98 NW8       29.98R
SHAWANO        CLEAR     54  50  88 W8        29.96R
OCONTO         CLOUDY    53  51  94 W6        29.93R
STURGEON BAY   RAIN      53  52  96 W3          N/A  FOG
GREEN BAY      CLOUDY    53  51  93 W10       29.96R
MANITOWOC      CLOUDY    55  50  83 W9        29.97S
APPLETON       PTCLDY    50  48  93 W9        29.97R
CLINTONVILLE   MOCLDY    52  46  82 W9        29.98R
OSHKOSH        MOCLDY    52  47  83 W9        29.99R
$$

WIZ032>034-041-042-053>061-251200-
SOUTHWEST WISCONSIN

CITY           SKY/WX    TMP DP  RH WIND       PRES   REMARKS
LA CROSSE      MOCLDY    58  49  72 W8        30.09R
SPARTA         CLEAR     42  42  99 CALM      30.07R
VIROQUA        CLEAR     48  48  99 W3        30.08R
BOSCOBEL       CLEAR     51  48  89 SW6       30.10R
PRAIRIE DU CHI CLEAR     51  45  79 NW3       30.11R
PLATTEVILLE    CLEAR     49  49  99 W5        30.12R
$$

WIZ056-057-062-063-064-067-068-251200-
SOUTH CENTRAL WISCONSIN

CITY           SKY/WX    TMP DP  RH WIND       PRES   REMARKS
REEDSBURG      CLEAR     50  49  95 SW3       30.06S
BARABOO/DELLS  CLEAR     49  46  92 CALM      30.06R
LONE ROCK      CLEAR     52  48  86 W7        30.08R
MINERAL POINT  CLEAR     50  50 100 W5        30.09S
MADISON        PTCLDY    51  48  89 VRB6      30.06R
MIDDLETON      CLEAR     51  50  95 W7        30.07R
WATERTOWN      CLEAR     50  50 100 W5        30.04R
MONROE         CLEAR     50  46  87 W12       30.09R
JANESVILLE     CLEAR     52  52 100 W7        30.07R
$$

WIZ051-052-058>065-066-070>072-251200-
SOUTHEAST WISCONSIN

CITY           SKY/WX    TMP DP  RH WIND       PRES   REMARKS
MILWAUKEE      CLEAR     54  49  83 W9        30.03R
WAUKESHA       CLEAR     48  46  93 W7        30.04R
MILWAUKEE/TIMM CLEAR     52  45  76 W9        30.03S
RACINE         CLEAR     52  48  86 W7        30.06R
KENOSHA        CLEAR     51  48  89 W8        30.05R
FOND DU LAC    PTCLDY    54  46  74 W10       30.01R
SHEBOYGAN      CLEAR     52  49  89 W10       29.98S
WEST BEND      CLEAR     52  46  82 W9        30.01S
JUNEAU         CLEAR     48  46  94 SW5       30.04S
$$

LSZ147-162-251200-
LAKE SUPERIOR

STATION/POSITION TIME  TEMP    WIND        PRES    WAVE
                       AIR SEA DIR/SP/G            HT/PER
                 (UTC) (F)     (DEG/KT/KT) (MB)    (FT/S)
W MID LAKE BUOY  1050   44 39  280/  4/  6 1015.3R   0
DEVILS ISLAND    1100   52     270/  7/  8 1015.7R
SAXON HARBOR     1040   54     200/  3/  4 1015.2R
$$

LMZ867-665-643>646-251200-
LAKE MICHIGAN

STATION/POSITION TIME  TEMP    WIND        PRES    WAVE
                       AIR SEA DIR/SP/G            HT/PER
                 (UTC) (F)     (DEG/KT/KT) (MB)    (FT/S)
CHAMBERS ISLAND  1040   54     230/  6/  9 1013.2R
S GREEN BAY BUOY 1100   56     270/ 14/ 17 1013.3
N MID LAKE BUOY  1050   55 56  310/  6/  8 1013.5R   1/ 3
NORTHPORT PIER   1040   57     330/  7/ 12 1013.2R
KEWAUNEE LAKESHO 1100   54     250/  6/  8 1013.7
SHEBOYGAN LAKESH 1100   54     260/ 11/ 14 1015.0R
PORT WASHINGTON  1040   54     260/  5/  8 1016.9R
ATWATER BUOY     1009   55 58  270/ 14/ 17 1016.4R
MILWAUKEE LAKESH 1050   55     280/ 10/ 12   N/A
S MID LAKE BUOY  1050   58 61  310/ 17/ 19 1016.5R   4/ 5
KENOSHA   LAKESH 1100   55     260/ 10/ 14 1017.6
$$

TC  - TEMPERATURE IN CELSIUS
VSB - VISIBILITY IN STATUTE MILES
WCI - WIND CHILL INDEX
HX  - HEAT INDEX





USA.gov is the U.S. government's official web portal to all federal, state and local government web resources and services.